Home > Products > Valid Products > RWR

000
ASUS43 KGLD 302108
RWRGLD

GOODLAND FORECAST AREA HOURLY WEATHER ROUNDUP
NATIONAL WEATHER SERVICE GOODLAND KS
300 PM MDT MON MAY 30 2016

...OFFICIAL OBSERVATIONS...

CITY           SKY/WX    TMP DP  RH WIND       PRES   REMARKS
GOODLAND KS    SUNNY     83  55  38 S20       29.89F
HILL CITY KS   SUNNY     85  53  33 S15G23    29.89F
IMPERIAL NEB   SUNNY     81  53  37 S9        29.86F
MCCOOK NEB     SUNNY     82  59  45 S20G25    29.86F
AKRON CO       CLOUDY    77  45  32 S8        29.91F
BURLINGTON CO  SUNNY     82  47  29 S12       29.92F
LIMON CO       LGT RAIN  69  32  25 E23G37    29.99F
$$

...UNOFFICIAL OBSERVATIONS...

CITY           SKY/WX    TMP DP  RH WIND       PRES   REMARKS
GOVE KS          N/A    N/A N/A N/A MISG        N/A
LENORA KS        N/A     81  32  17 MISG        N/A
SHARON SPRINGS   N/A     85  58  39 S16G32      N/A
KIT CARSON CO    N/A     80  51  36 MISG        N/A
YUMA CO          N/A     80  51  35 SE6G13      N/A
$$






000
ASUS43 KGLD 301808
RWRGLD

GOODLAND FORECAST AREA HOURLY WEATHER ROUNDUP
NATIONAL WEATHER SERVICE GOODLAND KS
1200 PM MDT MON MAY 30 2016

...OFFICIAL OBSERVATIONS...

CITY           SKY/WX    TMP DP  RH WIND       PRES   REMARKS
GOODLAND KS    SUNNY     75  56  51 S13       29.96F
HILL CITY KS   SUNNY     82  54  37 S18       29.96F
IMPERIAL NEB   SUNNY     74  56  53 S14       29.94F
MCCOOK NEB     SUNNY     78  56  46 S13       29.94F
AKRON CO       SUNNY     75  51  43 E9        29.99F
BURLINGTON CO  SUNNY     76  51  41 SW10      29.99F
LIMON CO       SUNNY     72  46  39 VRB6      30.03F
$$

...UNOFFICIAL OBSERVATIONS...

CITY           SKY/WX    TMP DP  RH WIND       PRES   REMARKS
GOVE KS          N/A     90  32  12 MISG        N/A
LENORA KS        N/A     78  32  18 MISG        N/A
SHARON SPRINGS   N/A     77  61  57 S15         N/A
TRIBUNE KS     SUNNY     81  55  41 S18       29.99
KIT CARSON CO    N/A     74  51  43 MISG        N/A
YUMA CO          N/A     77  52  41 CALM        N/A
$$






000
ASUS43 KGLD 301759
RWRGLD

GOODLAND FORECAST AREA HOURLY WEATHER ROUNDUP
NATIONAL WEATHER SERVICE GOODLAND KS
1200 PM MDT MON MAY 30 2016

...OFFICIAL OBSERVATIONS...

CITY           SKY/WX    TMP DP  RH WIND       PRES   REMARKS
GOODLAND KS    SUNNY     75  56  51 S13       29.96F
HILL CITY KS   SUNNY     82  54  37 S18       29.96F
IMPERIAL NEB   SUNNY     74  56  53 S14       29.94F
MCCOOK NEB     SUNNY     78  56  46 S13       29.94F
AKRON CO       SUNNY     75  51  43 E9        29.99F
BURLINGTON CO  SUNNY     76  51  41 SW10      29.99F
LIMON CO       SUNNY     72  46  39 VRB6      30.03F
$$

...UNOFFICIAL OBSERVATIONS...

CITY           SKY/WX    TMP DP  RH WIND       PRES   REMARKS
GOVE KS          N/A     87  32  14 MISG        N/A
LENORA KS        N/A     77  32  19 MISG        N/A
SHARON SPRINGS   N/A     75  59  57 S14         N/A
TRIBUNE KS     SUNNY     81  55  41 S18       29.99F
KIT CARSON CO    N/A     73  53  50 MISG        N/A
YUMA CO          N/A     76  51  41 S12         N/A
$$






000
ASUS43 KGLD 301708
RWRGLD

GOODLAND FORECAST AREA HOURLY WEATHER ROUNDUP
NATIONAL WEATHER SERVICE GOODLAND KS
1100 AM MDT MON MAY 30 2016

...OFFICIAL OBSERVATIONS...

CITY           SKY/WX    TMP DP  RH WIND       PRES   REMARKS
GOODLAND KS    SUNNY     72  54  53 S12       29.98F
HILL CITY KS   SUNNY     80  54  40 S15G22    29.98F
IMPERIAL NEB   SUNNY     72  54  53 S7        29.97F
MCCOOK NEB     SUNNY     76  54  46 S9        29.96F
AKRON CO       SUNNY     72  49  44 CALM      30.00F
BURLINGTON CO  SUNNY     73  51  46 S9        30.00F
LIMON CO       SUNNY     69  49  48 S6        30.05F
$$

...UNOFFICIAL OBSERVATIONS...

CITY           SKY/WX    TMP DP  RH WIND       PRES   REMARKS
GOVE KS          N/A     85  32  15 MISG        N/A
LENORA KS        N/A     76  32  20 MISG        N/A
KIT CARSON CO    N/A     71  51  49 MISG        N/A
YUMA CO          N/A     74  52  46 CALM        N/A
$$






000
ASUS43 KGLD 301659
RWRGLD

GOODLAND FORECAST AREA HOURLY WEATHER ROUNDUP
NATIONAL WEATHER SERVICE GOODLAND KS
1100 AM MDT MON MAY 30 2016

...OFFICIAL OBSERVATIONS...

CITY           SKY/WX    TMP DP  RH WIND       PRES   REMARKS
GOODLAND KS    SUNNY     72  54  53 S12       29.98F
HILL CITY KS   SUNNY     80  54  40 S15G22    29.98F
IMPERIAL NEB   SUNNY     72  54  53 S7        29.97F
MCCOOK NEB     SUNNY     76  54  46 S9        29.96F
AKRON CO       SUNNY     72  49  44 CALM      30.00F
BURLINGTON CO  SUNNY     73  51  46 S9        30.00F
LIMON CO       SUNNY     69  49  48 S6        30.05F
$$

...UNOFFICIAL OBSERVATIONS...

CITY           SKY/WX    TMP DP  RH WIND       PRES   REMARKS
GOVE KS          N/A     84  32  15 MISG        N/A
LENORA KS        N/A     76  32  20 MISG        N/A
KIT CARSON CO    N/A     70  52  52 MISG        N/A
YUMA CO          N/A     74  49  40 CALM        N/A
$$






000
ASUS43 KGLD 301359
RWRGLD

GOODLAND FORECAST AREA HOURLY WEATHER ROUNDUP
NATIONAL WEATHER SERVICE GOODLAND KS
800 AM MDT MON MAY 30 2016

...OFFICIAL OBSERVATIONS...

CITY           SKY/WX    TMP DP  RH WIND       PRES   REMARKS
GOODLAND KS    SUNNY     61  52  72 S8        30.02R
HILL CITY KS   SUNNY     62  55  77 SE3       30.02S
IMPERIAL NEB   SUNNY     62  52  69 SW6       30.01R
MCCOOK NEB     SUNNY     66  54  65 S3        30.00S
AKRON CO       SUNNY     59  49  69 S8        30.03F
BURLINGTON CO  SUNNY     61  50  67 SW12      30.03S
LIMON CO       SUNNY     52  48  86 SE6       30.08F
$$

...UNOFFICIAL OBSERVATIONS...

CITY           SKY/WX    TMP DP  RH WIND       PRES   REMARKS
GOVE KS          N/A     73  32  22 MISG        N/A
LENORA KS        N/A     65  32  29 MISG        N/A
SHARON SPRINGS   N/A     59  54  84 S12G20      N/A
KIT CARSON CO    N/A     56  51  83 CALM        N/A
YUMA CO          N/A     59  51  75 SW12        N/A
$$






000
ASUS43 KGLD 301308
RWRGLD

GOODLAND FORECAST AREA HOURLY WEATHER ROUNDUP
NATIONAL WEATHER SERVICE GOODLAND KS
700 AM MDT MON MAY 30 2016

...OFFICIAL OBSERVATIONS...

CITY           SKY/WX    TMP DP  RH WIND       PRES   REMARKS
GOODLAND KS    SUNNY     56  50  80 S9        30.00S
HILL CITY KS   CLOUDY    57  53  86 CALM      30.02R
IMPERIAL NEB   SUNNY     59  51  75 W12       29.99R
MCCOOK NEB     SUNNY     60  53  77 SE3       30.00S
AKRON CO       SUNNY     52  46  80 S9        30.04S
BURLINGTON CO  SUNNY     57  49  74 SW13      30.03S
LIMON CO       SUNNY     46  45  96 S5        30.10R
$$

...UNOFFICIAL OBSERVATIONS...

CITY           SKY/WX    TMP DP  RH WIND       PRES   REMARKS
GOVE KS          N/A     70  32  24 MISG        N/A
LENORA KS        N/A     60  32  34 MISG        N/A
SHARON SPRINGS   N/A     57  53  87 S6          N/A
TRIBUNE KS     SUNNY     55  52  88 S9        30.06R
KIT CARSON CO    N/A     53  49  87 CALM        N/A
YUMA CO          N/A     54  50  87 CALM        N/A
$$






000
ASUS43 KGLD 301208
RWRGLD

GOODLAND FORECAST AREA HOURLY WEATHER ROUNDUP
NATIONAL WEATHER SERVICE GOODLAND KS
600 AM MDT MON MAY 30 2016

...OFFICIAL OBSERVATIONS...

CITY           SKY/WX    TMP DP  RH WIND       PRES   REMARKS
GOODLAND KS    CLEAR     56  49  77 SW8       30.00F
HILL CITY KS   CLEAR     52  50  93 MISG      30.00R
IMPERIAL NEB   PTCLDY    58  50  75 SW9       29.98S
MCCOOK NEB     CLEAR     55  50  83 SW7       30.00R
AKRON CO       CLEAR     49  45  86 SW9       30.04F
BURLINGTON CO  CLEAR     51  47  86 SW7       30.03F
LIMON CO       CLEAR     38  38 100 S3        30.08R
$$

...UNOFFICIAL OBSERVATIONS...

CITY           SKY/WX    TMP DP  RH WIND       PRES   REMARKS
GOVE KS          N/A     65  32  29 MISG        N/A
LENORA KS        N/A     54  32  43 MISG        N/A
SHARON SPRINGS   N/A     53  50  90 S7          N/A
TRIBUNE KS     CLEAR     50  48  93 S3        30.05
KIT CARSON CO    N/A     47  43  87 CALM        N/A
YUMA CO          N/A     50  48  92 SW5         N/A
$$






000
ASUS43 KGLD 301159
RWRGLD

GOODLAND FORECAST AREA HOURLY WEATHER ROUNDUP
NATIONAL WEATHER SERVICE GOODLAND KS
600 AM MDT MON MAY 30 2016

...OFFICIAL OBSERVATIONS...

CITY           SKY/WX    TMP DP  RH WIND       PRES   REMARKS
GOODLAND KS    CLEAR     56  49  77 SW8       30.00F
HILL CITY KS   CLEAR     52  50  93 MISG      30.00R
IMPERIAL NEB   PTCLDY    58  50  75 SW9       29.98S
MCCOOK NEB     CLEAR     55  50  83 SW7       30.00R
AKRON CO       CLEAR     49  45  86 SW9       30.04F
BURLINGTON CO  CLEAR     51  47  86 SW7       30.03F
LIMON CO       CLEAR     38  38 100 S3        30.08R
$$

...UNOFFICIAL OBSERVATIONS...

CITY           SKY/WX    TMP DP  RH WIND       PRES   REMARKS
GOVE KS          N/A     64  32  30 MISG        N/A
LENORA KS        N/A     53  32  45 MISG        N/A
SHARON SPRINGS   N/A     52  49  89 S9          N/A
TRIBUNE KS     CLEAR     50  48  93 S3        30.05F
KIT CARSON CO    N/A     46  42  87 CALM        N/A
YUMA CO          N/A     49  47  92 SW5         N/A
$$






000
ASUS43 KGLD 301108
RWRGLD

GOODLAND FORECAST AREA HOURLY WEATHER ROUNDUP
NATIONAL WEATHER SERVICE GOODLAND KS
500 AM MDT MON MAY 30 2016

...OFFICIAL OBSERVATIONS...

CITY           SKY/WX    TMP DP  RH WIND       PRES   REMARKS
GOODLAND KS    CLEAR     56  49  77 S12       30.01F
HILL CITY KS   CLEAR     52  50  93 CALM      29.99R
IMPERIAL NEB   PTCLDY    57  50  77 SW8       29.98F
MCCOOK NEB     CLOUDY    56  51  84 SE5       29.99R
AKRON CO       CLEAR     49  46  90 SE7       30.05F
BURLINGTON CO  CLEAR     50  46  86 S7        30.04F
LIMON CO       CLEAR     40  39  97 N3        30.07F
$$

...UNOFFICIAL OBSERVATIONS...

CITY           SKY/WX    TMP DP  RH WIND       PRES   REMARKS
GOVE KS          N/A     64  32  30 MISG        N/A
LENORA KS        N/A     55  32  41 MISG        N/A
SHARON SPRINGS   N/A     52  49  90 S8          N/A
KIT CARSON CO    N/A     47  43  86 CALM        N/A
YUMA CO          N/A     50  47  90 S5          N/A
$$






000
ASUS43 KGLD 301059
RWRGLD

GOODLAND FORECAST AREA HOURLY WEATHER ROUNDUP
NATIONAL WEATHER SERVICE GOODLAND KS
500 AM MDT MON MAY 30 2016

...OFFICIAL OBSERVATIONS...

CITY           SKY/WX    TMP DP  RH WIND       PRES   REMARKS
GOODLAND KS    CLEAR     56  49  77 S12       30.01F
HILL CITY KS   CLEAR     52  50  93 CALM      29.99R
IMPERIAL NEB   PTCLDY    57  50  77 SW8       29.98F
MCCOOK NEB     CLOUDY    56  51  84 SE5       29.99R
AKRON CO       CLEAR     49  46  90 SE7       30.05F
BURLINGTON CO  CLEAR     50  46  86 S7        30.04F
LIMON CO       CLEAR     40  39  97 N3        30.07F
$$

...UNOFFICIAL OBSERVATIONS...

CITY           SKY/WX    TMP DP  RH WIND       PRES   REMARKS
GOVE KS          N/A     64  32  30 MISG        N/A
LENORA KS        N/A     54  32  43 MISG        N/A
SHARON SPRINGS   N/A     52  49  90 S6          N/A
KIT CARSON CO    N/A     49  45  86 CALM        N/A
YUMA CO          N/A     50  47  90 CALM        N/A
$$






000
ASUS43 KGLD 300859
RWRGLD

GOODLAND FORECAST AREA HOURLY WEATHER ROUNDUP
NATIONAL WEATHER SERVICE GOODLAND KS
300 AM MDT MON MAY 30 2016

...OFFICIAL OBSERVATIONS...

CITY           SKY/WX    TMP DP  RH WIND       PRES   REMARKS
GOODLAND KS    PTCLDY    57  50  77 S13       30.05F
HILL CITY KS   CLEAR     57  52  83 S5        30.01F
IMPERIAL NEB   PTCLDY    59  51  75 SW10      30.02S
MCCOOK NEB     PTCLDY    60  52  74 S10       29.96F
AKRON CO       CLOUDY    52  47  83 SE12      30.07S
BURLINGTON CO    N/A     52  48  86 S13       30.08F
LIMON CO       CLEAR     42  42 100 N3        30.11F
$$

...UNOFFICIAL OBSERVATIONS...

CITY           SKY/WX    TMP DP  RH WIND       PRES   REMARKS
GOVE KS          N/A     69  32  25 MISG        N/A
LENORA KS        N/A     57  32  39 MISG        N/A
SHARON SPRINGS   N/A     53  50  89 SE8         N/A
KIT CARSON CO    N/A     52  47  84 CALM        N/A
YUMA CO          N/A     53  49  87 SE8         N/A
$$






000
ASUS43 KGLD 300708
RWRGLD

GOODLAND FORECAST AREA HOURLY WEATHER ROUNDUP
NATIONAL WEATHER SERVICE GOODLAND KS
100 AM MDT MON MAY 30 2016

...OFFICIAL OBSERVATIONS...

CITY           SKY/WX    TMP DP  RH WIND       PRES   REMARKS
GOODLAND KS    CLOUDY    58  50  75 NE5       30.11R
HILL CITY KS   CLOUDY    60  53  77 NW9       30.04R
IMPERIAL NEB   CLOUDY    59  53  80 S13       30.08F
MCCOOK NEB     CLOUDY    62  51  67 S6        30.07S
AKRON CO       CLOUDY    55  48  77 S10       30.09F
BURLINGTON CO  CLOUDY    54  50  86 SE9       30.13R
LIMON CO       CLOUDY    47  45  93 SE3       30.15F
$$

...UNOFFICIAL OBSERVATIONS...

CITY           SKY/WX    TMP DP  RH WIND       PRES   REMARKS
GOVE KS          N/A     72  32  23 MISG        N/A
LENORA KS        N/A     57  32  39 MISG        N/A
SHARON SPRINGS   N/A     57  52  84 CALM        N/A
TRIBUNE KS     CLEAR     55  52  88 S9        30.13
KIT CARSON CO    N/A     52  47  84 CALM        N/A
YUMA CO          N/A     56  51  83 SE7         N/A
$$






000
ASUS43 KGLD 300659
RWRGLD

GOODLAND FORECAST AREA HOURLY WEATHER ROUNDUP
NATIONAL WEATHER SERVICE GOODLAND KS
100 AM MDT MON MAY 30 2016

...OFFICIAL OBSERVATIONS...

CITY           SKY/WX    TMP DP  RH WIND       PRES   REMARKS
GOODLAND KS    CLOUDY    58  50  75 NE5       30.11R
HILL CITY KS   CLOUDY    60  53  77 NW9       30.04R
IMPERIAL NEB   CLOUDY    59  53  80 S13       30.08F
MCCOOK NEB     CLOUDY    62  51  67 S6        30.07S
AKRON CO       CLOUDY    55  48  77 S10       30.09F
BURLINGTON CO  CLOUDY    54  50  86 SE9       30.13R
LIMON CO       CLOUDY    47  45  93 SE3       30.15F
$$

...UNOFFICIAL OBSERVATIONS...

CITY           SKY/WX    TMP DP  RH WIND       PRES   REMARKS
GOVE KS          N/A     72  32  23 MISG        N/A
LENORA KS        N/A     58  32  37 MISG        N/A
SHARON SPRINGS   N/A     57  53  85 N5          N/A
TRIBUNE KS     CLEAR     55  52  88 S9        30.13
KIT CARSON CO    N/A     53  47  82 CALM        N/A
YUMA CO          N/A     56  51  82 CALM        N/A
$$






000
ASUS43 KGLD 300608
RWRGLD

GOODLAND FORECAST AREA HOURLY WEATHER ROUNDUP
NATIONAL WEATHER SERVICE GOODLAND KS
1200 AM MDT MON MAY 30 2016

...OFFICIAL OBSERVATIONS...

CITY           SKY/WX    TMP DP  RH WIND       PRES   REMARKS
GOODLAND KS    LGT RAIN  57  52  83 E9        30.14R
HILL CITY KS   CLOUDY    63  53  70 SE8       30.03F
IMPERIAL NEB   LGT RAIN  60  52  74 S8        30.13F
MCCOOK NEB     CLOUDY    64  52  64 SE8       30.07R
AKRON CO       CLOUDY    54  50  86 SE12      30.11R
BURLINGTON CO  CLOUDY    56  50  80 SW10      30.12F
LIMON CO       PTCLDY    52  46  80 SE9       30.16S
$$

...UNOFFICIAL OBSERVATIONS...

CITY           SKY/WX    TMP DP  RH WIND       PRES   REMARKS
GOVE KS          N/A     73  32  22 MISG        N/A
LENORA KS        N/A     60  32  34 MISG        N/A
SHARON SPRINGS   N/A     56  51  85 S8          N/A
KIT CARSON CO    N/A     55  49  80 CALM        N/A
YUMA CO          N/A     57  51  81 SE13G21     N/A
$$






000
ASUS43 KGLD 300559
RWRGLD

GOODLAND FORECAST AREA HOURLY WEATHER ROUNDUP
NATIONAL WEATHER SERVICE GOODLAND KS
1200 AM MDT MON MAY 30 2016

...OFFICIAL OBSERVATIONS...

CITY           SKY/WX    TMP DP  RH WIND       PRES   REMARKS
GOODLAND KS    LGT RAIN  57  52  83 E9        30.14R
HILL CITY KS   CLOUDY    63  53  70 SE8       30.03F
IMPERIAL NEB   LGT RAIN  60  52  74 S8        30.13F
MCCOOK NEB     CLOUDY    64  52  64 SE8       30.07R
AKRON CO       CLOUDY    54  50  86 SE12      30.11R
BURLINGTON CO  CLOUDY    56  50  80 SW10      30.12F
LIMON CO       PTCLDY    52  46  80 SE9       30.16S
$$

...UNOFFICIAL OBSERVATIONS...

CITY           SKY/WX    TMP DP  RH WIND       PRES   REMARKS
GOVE KS          N/A     73  32  22 MISG        N/A
LENORA KS        N/A     63  32  31 MISG        N/A
SHARON SPRINGS   N/A     57  52  84 SE7         N/A
KIT CARSON CO    N/A     55  49  81 CALM        N/A
YUMA CO          N/A     58  51  79 SE18        N/A
$$






000
ASUS43 KGLD 300459
RWRGLD

GOODLAND FORECAST AREA HOURLY WEATHER ROUNDUP
NATIONAL WEATHER SERVICE GOODLAND KS
1100 PM MDT SUN MAY 29 2016

...OFFICIAL OBSERVATIONS...

CITY           SKY/WX    TMP DP  RH WIND       PRES   REMARKS
GOODLAND KS    CLOUDY    58  50  75 N16       30.11R
HILL CITY KS   CLOUDY    66  53  63 SE10      30.07F
IMPERIAL NEB   CLOUDY    63  49  60 SW21G39   30.13R THUNDER
MCCOOK NEB     CLOUDY    66  50  56 W12G23    30.04F
AKRON CO       CLOUDY    55  50  83 E15G21    30.08R
BURLINGTON CO  CLOUDY    58  51  78 S12       30.13R
LIMON CO       PTCLDY    51  46  83 E3        30.16R
$$

...UNOFFICIAL OBSERVATIONS...

CITY           SKY/WX    TMP DP  RH WIND       PRES   REMARKS
GOVE KS          N/A     73  32  22 MISG        N/A
LENORA KS        N/A     63  32  31 MISG        N/A
SHARON SPRINGS   N/A     57  53  86 S15         N/A
TRIBUNE KS     CLOUDY    55  52  88 S9        30.13S
KIT CARSON CO    N/A     57  49  74 CALM        N/A
YUMA CO          N/A     58  52  80 SE20        N/A
$$






000
ASUS43 KGLD 300308
RWRGLD

GOODLAND FORECAST AREA HOURLY WEATHER ROUNDUP
NATIONAL WEATHER SERVICE GOODLAND KS
900 PM MDT SUN MAY 29 2016

...OFFICIAL OBSERVATIONS...

CITY           SKY/WX    TMP DP  RH WIND       PRES   REMARKS
GOODLAND KS    CLOUDY    60  50  69 S28G38    30.03F
HILL CITY KS   CLOUDY    70  49  47 CALM      30.03R
IMPERIAL NEB   CLOUDY    62  52  69 S21G39    30.03R
MCCOOK NEB     CLOUDY    66  51  58 SW10G17   30.03S
AKRON CO       CLOUDY    62  47  57 NW12      30.06R
BURLINGTON CO  CLOUDY    59  50  72 S29G38    30.06R
LIMON CO       CLEAR     55  47  74 N10       30.10R
$$

...UNOFFICIAL OBSERVATIONS...

CITY           SKY/WX    TMP DP  RH WIND       PRES   REMARKS
GOVE KS          N/A     71  32  23 MISG        N/A
LENORA KS        N/A     66  32  28 MISG        N/A
SHARON SPRINGS   N/A     58  53  84 E13G20      N/A
TRIBUNE KS     CLOUDY    61  55  82 NE17G23   30.13R
KIT CARSON CO    N/A     62  50  64 MISG        N/A
YUMA CO          N/A     61  53  74 CALM        N/A
$$






000
ASUS43 KGLD 300208
RWRGLD

GOODLAND FORECAST AREA HOURLY WEATHER ROUNDUP
NATIONAL WEATHER SERVICE GOODLAND KS
800 PM MDT SUN MAY 29 2016

...OFFICIAL OBSERVATIONS...

CITY           SKY/WX    TMP DP  RH WIND       PRES   REMARKS
GOODLAND KS    CLOUDY    61  51  70 S29G44    30.04F
HILL CITY KS   CLOUDY    72  47  40 SW16G23   29.97F
IMPERIAL NEB   CLOUDY    63  53  70 S15       30.03R
MCCOOK NEB     CLOUDY    68  56  65 S9        30.03S
AKRON CO       CLOUDY    68  45  43 W14G23    30.03S
BURLINGTON CO  CLOUDY    60  51  72 SE28G35   30.05R
LIMON CO       CLOUDY    59  52  77 N3        30.08S
$$

...UNOFFICIAL OBSERVATIONS...

CITY           SKY/WX    TMP DP  RH WIND       PRES   REMARKS
GOVE KS          N/A     70  32  24 MISG        N/A
LENORA KS        N/A     68  32  26 MISG        N/A
SHARON SPRINGS   N/A     61  54  76 NE15G23     N/A
TRIBUNE KS     CLOUDY    64  54  68 N25G31    30.09R
KIT CARSON CO    N/A     64  51  61 MISG        N/A
YUMA CO          N/A     63  56  77 S6G15       N/A
$$






000
ASUS43 KGLD 300108
RWRGLD

GOODLAND FORECAST AREA HOURLY WEATHER ROUNDUP
NATIONAL WEATHER SERVICE GOODLAND KS
700 PM MDT SUN MAY 29 2016

...OFFICIAL OBSERVATIONS...

CITY           SKY/WX    TMP DP  RH WIND       PRES   REMARKS
GOODLAND KS    LGT RAIN  59  53  80 S23G35    30.07R
HILL CITY KS   CLOUDY    68  50  52 S20G28    29.99F
IMPERIAL NEB   CLOUDY    63  54  72 S9        30.01R THUNDER
MCCOOK NEB     LGT RAIN  67  56  67 NE6       30.03R
AKRON CO       CLOUDY    72  51  47 SW6       30.03R
BURLINGTON CO  CLOUDY    64  50  60 SE22      30.04R
LIMON CO       CLOUDY    64  53  67 CALM      30.08S
$$

...UNOFFICIAL OBSERVATIONS...

CITY           SKY/WX    TMP DP  RH WIND       PRES   REMARKS
GOVE KS          N/A     74  32  21 MISG        N/A
LENORA KS        N/A     68  32  26 MISG        N/A
SHARON SPRINGS   N/A     64  53  67 E13         N/A
TRIBUNE KS     CLOUDY    63  54  72 SW18G26   30.01
KIT CARSON CO    N/A     71  48  43 MISG        N/A
YUMA CO          N/A     74  52  46 E5          N/A
$$






000
ASUS43 KGLD 300059
RWRGLD

GOODLAND FORECAST AREA HOURLY WEATHER ROUNDUP
NATIONAL WEATHER SERVICE GOODLAND KS
700 PM MDT SUN MAY 29 2016

...OFFICIAL OBSERVATIONS...

CITY           SKY/WX    TMP DP  RH WIND       PRES   REMARKS
GOODLAND KS    LGT RAIN  59  53  80 S23G35    30.07R
HILL CITY KS   CLOUDY    68  50  52 S20G28    29.99F
IMPERIAL NEB   CLOUDY    63  54  72 S9        30.01R THUNDER
MCCOOK NEB     LGT RAIN  67  56  67 NE6       30.03R
AKRON CO       CLOUDY    72  51  47 SW6       30.03R
BURLINGTON CO  CLOUDY    64  50  60 SE22      30.04R
LIMON CO       CLOUDY    64  53  67 CALM      30.08S
$$

...UNOFFICIAL OBSERVATIONS...

CITY           SKY/WX    TMP DP  RH WIND       PRES   REMARKS
GOVE KS          N/A     76  32  20 MISG        N/A
LENORA KS        N/A     68  32  26 MISG        N/A
SHARON SPRINGS   N/A     65  52  62 SE9G17      N/A
TRIBUNE KS     CLOUDY    63  54  72 SW18G26   30.01
KIT CARSON CO    N/A     72  47  40 MISG        N/A
YUMA CO          N/A     75  53  45 E5          N/A
$$






000
ASUS43 KGLD 300008
RWRGLD

GOODLAND FORECAST AREA HOURLY WEATHER ROUNDUP
NATIONAL WEATHER SERVICE GOODLAND KS
600 PM MDT SUN MAY 29 2016

...OFFICIAL OBSERVATIONS...

CITY           SKY/WX    TMP DP  RH WIND       PRES   REMARKS
GOODLAND KS    CLOUDY    65  50  58 SE20G30   30.03R
HILL CITY KS   LGT RAIN  69  50  50 S23G37    30.03F
IMPERIAL NEB   CLOUDY    69  53  56 SE17G29   29.99R THUNDER
MCCOOK NEB     CLOUDY    69  55  60 SE9G21    29.99R
AKRON CO       CLOUDY    76  44  32 E3        30.02F
BURLINGTON CO  CLOUDY    80  41  24 W3        30.00F
LIMON CO       CLOUDY    64  46  52 W3        30.08F
$$

...UNOFFICIAL OBSERVATIONS...

CITY           SKY/WX    TMP DP  RH WIND       PRES   REMARKS
GOVE KS          N/A     75  32  20 MISG        N/A
LENORA KS        N/A     70  32  24 MISG        N/A
SHARON SPRINGS   N/A     67  56  67 S20G29      N/A
KIT CARSON CO    N/A     81  46  28 CALM        N/A
YUMA CO          N/A     78  48  34 CALM        N/A
$$






000
ASUS43 KGLD 292359
RWRGLD

GOODLAND FORECAST AREA HOURLY WEATHER ROUNDUP
NATIONAL WEATHER SERVICE GOODLAND KS
600 PM MDT SUN MAY 29 2016

...OFFICIAL OBSERVATIONS...

CITY           SKY/WX    TMP DP  RH WIND       PRES   REMARKS
GOODLAND KS    CLOUDY    66  50  56 SE22G31   30.03R
HILL CITY KS   LGT RAIN  69  50  50 S23G37    30.03F
IMPERIAL NEB   CLOUDY    69  53  56 SE17G29   29.99R THUNDER
MCCOOK NEB     CLOUDY    69  55  60 SE9G21    29.99R
AKRON CO       CLOUDY    76  44  32 E3        30.02F
BURLINGTON CO  CLOUDY    80  41  24 W3        30.00F
LIMON CO       CLOUDY    64  46  52 W3        30.08F
$$

...UNOFFICIAL OBSERVATIONS...

CITY           SKY/WX    TMP DP  RH WIND       PRES   REMARKS
GOVE KS          N/A     76  32  20 MISG        N/A
LENORA KS        N/A     70  32  24 MISG        N/A
SHARON SPRINGS   N/A     71  58  64 S21G29      N/A
KIT CARSON CO    N/A     82  44  26 CALM        N/A
YUMA CO          N/A     79  50  35 CALM        N/A
$$






    US Dept of Commerce
    National Oceanic and Atmospheric Administration
    National Weather Service
    1325 East West Highway
    Silver Spring, MD 20910
    Page Author: NWS Internet Services Team
Disclaimer
Information Quality
Credits
Glossary
Privacy Policy
Freedom of Information Act (FOIA)
About Us
Career Opportunities